Location: ???????????
(55.5758°N, 38.4970°E)
Time: 18:22:09
(UTC+00:00)

Cosmos 2322 Rocket - Pass Details

Date: 15 November 2025
Orbit: 830 x 851 km, 71.0° (Epoch: 14 December)

Event Time Altitude Azimuth Distance (km) Brightness Sun altitude
Exits shadow 03:57:58 - 316° (NW) 2,692 4.3 -8.8°
Reaches altitude 10° 03:58:48 10° 323° (NW) 2,487 4.1 -8.6°
Maximum altitude 04:02:29 17° 3° (N) 2,027 4.0 -8.2°
Drops below altitude 10° 04:06:10 10° 43° (NE) 2,491 5.0 -7.7°
Sets 04:09:34 0° 64° (ENE) 3,427 6.0 -7.2°
